リニア彗星

C/2011 UF305 ( LINEAR )

English version
Home page
Updated on May 15, 2012

---------------------------------------------------------------------

・ プロフィール

発見日 2011年10月31日
発見光度 18.1等
発見者 Lincoln Laboratory Near-Earth Asteroid Research project

・ 写真集

・ 軌道要素

Epoch 2012 July 12.0 TT = JDT 2456120.5
T 2012 July 22.16065 TT                                 MPC
q   2.1381971            (2000.0)            P               Q
z  -0.0003088      Peri.  121.99233     -0.29610318     -0.35829735
 +/-0.0000027      Node   297.43590     +0.07009467     +0.91632589
e   1.0006603      Incl.   93.96066     +0.95258052     -0.17880121
From 371 observations 2011 July 25-2012 May 3, mean residual 0".4.

・ 星図

・ 光度変化

        m1 = 6.0 + 5 logΔ + 15.0 log r

---------------------------------------------------------------------

軌道要素はM.P.E.C. 2012-J16に掲載されたものです。
星図はステラナビゲータ Ver.8 (アストロアーツ) で作成したものです。
光度グラフはComet for Windowsで作成したものです。

---------------------------------------------------------------------

Copyright(C) Seiichi Yoshida (comet@aerith.net). All rights reserved.